Le nostre stazioni meteo in Italia

Pubblicità
Il mio iltempo24.it
Mte.Calamita, Italia (16197): Temperatura & dewpoint: 12.01.2020 09:00:00 - 18.01.2020 09:00:00 (CET)Mte.Calamita, Italia (16197): velocità del vento: 12.01.2020 09:00:00 - 18.01.2020 09:00:00 (CET)Mte.Calamita, Italia (16197): direzione del vento: 12.01.2020 09:00:00 - 18.01.2020 09:00:00 (CET)Mte.Calamita, Italia (16197): reduced air pressure: 12.01.2020 09:00:00 - 18.01.2020 09:00:00 (CET)Mte.Calamita, Italia (16197): visibility: 12.01.2020 09:00:00 - 18.01.2020 09:00:00 (CET)Mte.Calamita, Italia (16197): ore di luce: 12.01.2020 09:00:00 - 18.01.2020 09:00:00 (CET)
Data & Tempo tt [°C] td [°C] ff [km/h] ff [kn] dd ppp [hPa] vv [km] sd [min]
18.01.2020 09:00:00 8,0 6,0 18 10 NNO - 10 -
18.01.2020 08:00:00 8,0 6,0 22 12 NO - 10 -
18.01.2020 07:00:00 7,8 5,9 22 12 O 1019,7 - 0
18.01.2020 06:00:00 - - - - - - - -
18.01.2020 05:00:00 - - - - - - - -
18.01.2020 04:00:00 - - - - - - - -
18.01.2020 03:00:00 - - - - - - - -
18.01.2020 02:00:00 - - - - - - - -
18.01.2020 01:00:00 - - - - - - - -
18.01.2020 00:00:00 - - - - - - - -
17.01.2020 23:00:00 - - - - - - - -
17.01.2020 22:00:00 - - - - - - - -
17.01.2020 21:00:00 - - - - - - - -
17.01.2020 20:00:00 10,0 8,0 4 2 SSE - 10 -
17.01.2020 19:00:00 10,0 8,3 2 1 S 1023,4 10 0
17.01.2020 18:00:00 - - - - - - - -
17.01.2020 17:00:00 10,0 9,0 4 2 SSO - 10 -
17.01.2020 16:00:00 10,6 8,9 2 1 S 1023,5 30 0
17.01.2020 15:00:00 11,0 10,0 2 1 S - 10 -
17.01.2020 14:00:00 11,0 9,0 2 1 S - 10 -
17.01.2020 13:00:00 11,0 9,2 2 1 SSO 1024,3 25 60
17.01.2020 12:00:00 10,0 9,0 2 1 O - 10 -
17.01.2020 11:00:00 10,0 9,0 2 1 S - 10 -
17.01.2020 10:00:00 9,4 8,7 2 1 S 1025,6 15 0
17.01.2020 09:00:00 9,0 8,0 2 1 S - 10 -
17.01.2020 08:00:00 9,0 8,0 4 2 NNE - 10 -
17.01.2020 07:00:00 9,0 7,9 2 1 N 1025,7 10 0
17.01.2020 06:00:00 - - - - - - - -
17.01.2020 05:00:00 - - - - - - - -
17.01.2020 04:00:00 - - - - - - - -
17.01.2020 03:00:00 - - - - - - - -
17.01.2020 02:00:00 - - - - - - - -
17.01.2020 01:00:00 - - - - - - - -
17.01.2020 00:00:00 - - - - - - - -
16.01.2020 23:00:00 - - - - - - - -
16.01.2020 22:00:00 - - - - - - - -
16.01.2020 21:00:00 - - - - - - - -
16.01.2020 20:00:00 9,0 7,0 2 1 NNE - 10 -
16.01.2020 19:00:00 9,0 7,8 2 1 N 1027,9 10 0
16.01.2020 18:00:00 9,0 8,0 4 2 N - 10 -
16.01.2020 17:00:00 10,0 9,0 2 1 N - 10 -
16.01.2020 16:00:00 10,0 8,4 2 1 N 1027,6 15 0
16.01.2020 15:00:00 10,0 9,0 2 1 S - 10 -
16.01.2020 14:00:00 11,0 8,0 4 2 S - 10 -
16.01.2020 13:00:00 11,0 8,9 4 2 S 1028,7 15 0
16.01.2020 12:00:00 11,0 9,0 2 1 S - 10 -
16.01.2020 11:00:00 11,0 9,0 4 2 E - 10 -
16.01.2020 10:00:00 9,4 7,5 4 2 SSE 1029,7 20 0
16.01.2020 09:00:00 8,0 6,0 4 2 SSE - 10 -
16.01.2020 08:00:00 8,0 6,0 5 3 SSO - 10 -
16.01.2020 07:00:00 8,0 6,5 5 3 SSE 1028,7 10 0
16.01.2020 06:00:00 - - - - - - - -
16.01.2020 05:00:00 - - - - - - - -
16.01.2020 04:00:00 - - - - - - - -
16.01.2020 03:00:00 - - - - - - - -
16.01.2020 02:00:00 - - - - - - - -
16.01.2020 01:00:00 - - - - - - - -
16.01.2020 00:00:00 - - - - - - - -
15.01.2020 23:00:00 - - - - - - - -
15.01.2020 22:00:00 - - - - - - - -
15.01.2020 21:00:00 - - - - - - - -
15.01.2020 20:00:00 10,0 8,0 4 2 SSO - 10 -
15.01.2020 19:00:00 8,8 7,1 4 2 SSO 1027,9 10 0
15.01.2020 18:00:00 9,0 7,0 2 1 S - 10 -
15.01.2020 17:00:00 10,0 7,0 2 1 S - 10 -
15.01.2020 16:00:00 11,4 7,3 4 2 SSO 1026,5 40 60
15.01.2020 15:00:00 11,0 8,0 4 2 SSO - 10 -
15.01.2020 14:00:00 12,0 8,0 4 2 S - 10 -
15.01.2020 13:00:00 11,4 7,1 5 3 S 1027,3 40 0
15.01.2020 12:00:00 12,0 9,0 5 3 S - 10 -
15.01.2020 11:00:00 10,0 8,0 2 1 S - 10 -
15.01.2020 10:00:00 9,6 7,9 5 3 SSE 1027,5 40 0
15.01.2020 09:00:00 8,0 8,0 5 3 SSE - 10 -
15.01.2020 08:00:00 8,0 7,0 2 1 S - 10 -
15.01.2020 07:00:00 8,0 6,5 2 1 S 1027,0 10 0
15.01.2020 06:00:00 - - - - - - - -
15.01.2020 05:00:00 - - - - - - - -
15.01.2020 04:00:00 - - - - - - - -
15.01.2020 03:00:00 - - - - - - - -
15.01.2020 02:00:00 - - - - - - - -
15.01.2020 01:00:00 - - - - - - - -
15.01.2020 00:00:00 - - - - - - - -
14.01.2020 23:00:00 - - - - - - - -
14.01.2020 22:00:00 - - - - - - - -
14.01.2020 21:00:00 - - - - - - - -
14.01.2020 20:00:00 9,0 6,0 2 1 S - 10 -
14.01.2020 19:00:00 8,6 5,4 5 3 SSE 1025,8 10 0
14.01.2020 18:00:00 9,0 5,0 2 1 S - 10 -
14.01.2020 17:00:00 10,0 5,0 5 3 SSO - 10 -
14.01.2020 16:00:00 10,0 6,2 4 2 SSO 1024,4 30 0
14.01.2020 15:00:00 10,0 7,0 5 3 S - 10 -
14.01.2020 14:00:00 10,0 7,0 5 3 S - 10 -
14.01.2020 13:00:00 8,8 7,6 9 5 SSE 1025,4 20 0
14.01.2020 12:00:00 8,0 7,0 18 10 SSE - 10 -
14.01.2020 11:00:00 8,0 7,0 18 10 SSE - 10 -
14.01.2020 10:00:00 8,0 7,4 22 12 SSE 1024,8 20 0
14.01.2020 09:00:00 8,0 7,0 18 10 SSE - 10 -
14.01.2020 08:00:00 8,0 7,0 15 8 SSE - 10 -
14.01.2020 07:00:00 8,0 7,1 11 6 SSE 1023,9 10 0
14.01.2020 06:00:00 - - - - - - - -
14.01.2020 05:00:00 - - - - - - - -
14.01.2020 04:00:00 - - - - - - - -
14.01.2020 03:00:00 - - - - - - - -
14.01.2020 02:00:00 - - - - - - - -
14.01.2020 01:00:00 - - - - - - - -
14.01.2020 00:00:00 - - - - - - - -
13.01.2020 23:00:00 - - - - - - - -
13.01.2020 22:00:00 - - - - - - - -
13.01.2020 21:00:00 - - - - - - - -
13.01.2020 20:00:00 7,0 5,0 2 1 S - 10 -
13.01.2020 19:00:00 7,2 6,0 2 1 S 1023,9 10 0
13.01.2020 18:00:00 8,0 6,0 2 1 S - 10 -
13.01.2020 17:00:00 9,0 7,0 2 1 S - 10 -
13.01.2020 16:00:00 11,0 6,5 2 1 S 1023,3 40 60
13.01.2020 15:00:00 11,0 6,0 2 1 O - 10 -
13.01.2020 14:00:00 11,0 7,0 2 1 NNO - 10 -
13.01.2020 13:00:00 10,0 5,6 9 5 N 1024,4 30 60
13.01.2020 12:00:00 10,0 6,0 4 2 NNE - 10 -
13.01.2020 11:00:00 9,0 6,0 4 2 NNO - 10 -
13.01.2020 10:00:00 8,2 4,6 5 3 ENE 1025,8 30 60
13.01.2020 09:00:00 5,0 3,0 5 3 ENE - 10 -
13.01.2020 08:00:00 5,0 1,0 4 2 ENE - 10 -
13.01.2020 07:00:00 5,0 3,2 5 3 E 1026,0 10 0
13.01.2020 06:00:00 - - - - - - - -
13.01.2020 05:00:00 - - - - - - - -
13.01.2020 04:00:00 - - - - - - - -
13.01.2020 03:00:00 - - - - - - - -
13.01.2020 02:00:00 - - - - - - - -
13.01.2020 01:00:00 - - - - - - - -
13.01.2020 00:00:00 - - - - - - - -
12.01.2020 23:00:00 - - - - - - - -
12.01.2020 22:00:00 - - - - - - - -
12.01.2020 21:00:00 - - - - - - - -
12.01.2020 20:00:00 7,0 3,0 5 3 N - 10 -
12.01.2020 19:00:00 7,2 2,5 5 3 N 1025,8 10 0
12.01.2020 18:00:00 7,0 4,0 8 4 N - 10 -
12.01.2020 17:00:00 8,0 5,0 9 5 N - 10 -
12.01.2020 16:00:00 10,0 6,2 5 3 N 1025,2 20 60
12.01.2020 15:00:00 11,0 6,0 8 4 N - 10 -
12.01.2020 14:00:00 11,0 6,0 5 3 N - 10 -
12.01.2020 13:00:00 10,2 5,2 8 4 N 1025,8 20 60
12.01.2020 12:00:00 10,0 6,0 9 5 N - 10 -
12.01.2020 11:00:00 8,0 6,0 11 6 E - 10 -
12.01.2020 10:00:00 8,0 6,0 9 5 N 1026,9 20 60
12.01.2020 09:00:00 7,0 5,0 9 5 NNE - 10 -

tt = Temperatura
td = dewpoint
ff = velocità del vento
dd = direzione del vento
ppp = reduced air pressure
vv = visibility
sd = ore di luce

Stazioni seguenti

WeatherPro
AMSI
MeteoEarth